This is the latest recevied weather packets stored in our database for station/object IK2CHZ-3. If no packets are shown the sender has not sent any weather packets the latest 1 day(s).
| Time | Temp. | Humidity | Pressure | Rain* | Wind** | Luminosity | Snow |
|---|---|---|---|---|---|---|---|
| 1778001967 | 15.56° C | 85% | 1012.3 hPa | 0 mm | 0.89 m/s, 77° | - | - |
| 1778001307 | 15.56° C | 85% | 1012.3 hPa | 0 mm | 0.45 m/s, 36° | - | - |
| 1778000646 | 15.56° C | 85% | 1012.3 hPa | 0 mm | 0.45 m/s, 70° | - | - |
| 1777999987 | 15.56° C | 85% | 1012.3 hPa | 0 mm | 0.45 m/s, 78° | - | - |
| 1777999326 | 15.56° C | 86% | 1012.4 hPa | 0 mm | 0.45 m/s, 88° | - | - |
| 1777998666 | 15.56° C | 85% | 1012.5 hPa | 0 mm | 0.89 m/s, 80° | - | - |
| 1777998005 | 15.56° C | 85% | 1012.5 hPa | 0 mm | 1.34 m/s, 75° | - | - |
| 1777997347 | 16.11° C | 85% | 1012.6 hPa | 0 mm | 0.45 m/s, 110° | - | - |
| 1777996687 | 16.11° C | 84% | 1012.6 hPa | 0 mm | 0.89 m/s, 93° | - | - |
| 1777996026 | 16.11° C | 85% | 1012.7 hPa | 0 mm | 0.45 m/s, 92° | - | - |
| 1777995366 | 15.56° C | 85% | 1012.6 hPa | 0 mm | 0.89 m/s, 81° | - | - |
| 1777994705 | 15.56° C | 86% | 1012.7 hPa | 0 mm | 0.89 m/s, 76° | - | - |
| 1777994046 | 15.56° C | 86% | 1012.8 hPa | 0 mm | 0.45 m/s, 111° | - | - |
| 1777993385 | 15.56° C | 86% | 1012.8 hPa | 0 mm | 0.45 m/s, 80° | - | - |
| 1777992726 | 15° C | 87% | 1012.9 hPa | 0 mm | 0.89 m/s, 94° | - | - |
| 1777992067 | 15° C | 88% | 1012.9 hPa | 0 mm | 0.45 m/s, 69° | - | - |
| 1777991406 | 15° C | 88% | 1012.8 hPa | 0 mm | 0.89 m/s, 72° | - | - |
| 1777990747 | 15° C | 88% | 1012.8 hPa | 0 mm | 0.45 m/s, 67° | - | - |
| 1777990085 | 15° C | 88% | 1012.8 hPa | 0 mm | 0.45 m/s, 64° | - | - |
| 1777989426 | 15° C | 88% | 1012.8 hPa | 0 mm | 1.34 m/s, 93° | - | - |
| 1777988767 | 15° C | 87% | 1012.9 hPa | 0.25 mm | 0.89 m/s, 68° | - | - |
| 1777988106 | 15° C | 88% | 1012.9 hPa | 0.25 mm | 0.89 m/s, 73° | - | - |
| 1777987447 | 15° C | 88% | 1013 hPa | 0.25 mm | 0.89 m/s, 98° | - | - |
| 1777986786 | 15° C | 87% | 1013 hPa | 0.25 mm | 0.89 m/s, 97° | - | - |
| 1777986127 | 15.56° C | 86% | 1013.1 hPa | 0.25 mm | 1.34 m/s, 93° | - | - |
* Rain latest hour (hover to see other rain measurements)
** Current wind speed in m/s (hover to see current wind gust speed)